Regional Weather Roundup
Issued by NWS

Home | Current Version | Previous Version | Graphics & Text | Print | Product List | Glossary On
Versions: 1 2 3 4 5 6 7 8 9 10 11 12 13 14 15 16 17 18 19 20 21 22 23 24 25 26 27 28 29 30 31 32 33 34 35 36 37 38 39 40 41 42 43 44 45 46 47 48 49 50
000
ASUS43 KDTX 250510
RWRMI
MICHIGAN HOURLY REGIONAL WEATHER ROUNDUP
NATIONAL WEATHER SERVICE DETROIT/PONTIAC MI
1200 AM EST THU DEC 25 2014

NOTE: "FAIR" INDICATES FEW OR NO CLOUDS BELOW 12,000 FEET WITH NO
SIGNIFICANT WEATHER AND/OR OBSTRUCTION TO VISIBILITY.

MIZ047>049-052>055-059>063-066>070-074>076-081>083-250600-
SOUTHEAST LOWER MICHIGAN

CITY           SKY/WX    TMP DP  RH WIND       PRES   REMARKS
ADRIAN         CLOUDY    37  34  89 W15G23    29.54R WCI  28
ALMA           LGT SNOW  33  33 100 W12G18    29.44R WCI  24
ANN ARBOR      CLOUDY    36  33  89 W20       29.49R WCI  25
BAD AXE        LGT SNOW  33  33 100 W20G26    29.33R WCI  21
CARO           LGT SNOW  33  32  97 W13G18    29.38R WCI  24
DETROIT CITY   CLOUDY    39  33  79 W17G24    29.47R WCI  30
DETROIT        LGT RAIN  37  34  89 SW20G25   29.50R WCI  27
FLINT          FLURRIES  35  32  88 W15       29.43R WCI  25
GROSSE ILE     CLOUDY    37  34  87 SW12G22   29.49R WCI  30
HILLSDALE      CLOUDY    35  35 100 SW14      29.52R WCI  26
HOWELL         FLURRIES  33  33 100 SW13G20   29.46R WCI  24

CITY           SKY/WX    TMP DP  RH WIND       PRES   REMARKS
JACKSON        CLOUDY    34  32  92 W10       29.50R WCI  26
LAMBERTVILLE   CLOUDY    37  34  87 SW16G23   29.55R WCI  28
LANSING        FLURRIES  34  32  92 SW16      29.48R WCI  24
LAPEER         LGT SNOW  33  33  98 W12G20    29.40R WCI  24
MASON          CLOUDY    33  32  96 SW9G21    29.49R WCI  25
MONROE         CLOUDY    37  36  93 SW21      29.51R WCI  27
MT. CLEMENS    CLOUDY    36 N/A N/A SW18G25   29.42R WCI  25
PONTIAC        FLURRIES  34  33  96 W15G23    29.43R WCI  24
PORT HOPE        N/A     34  31  88 W17G29    29.27R WCI  23
PORT HURON     CLOUDY    34  34 100 SW12G17   29.39R WCI  25
TRI CITIES     FLURRIES  35  32  88 W16       29.41R WCI  25
TROY           CLOUDY    38  34  88 SW12G23   29.47R WCI  30
SAGINAW HB     LGT SNOW  34  34 100 SW13G18   29.40R WCI  25
$$
MIZ043>046-050>051-056>058-064>065-071>073-077>080-250600-
SOUTHWEST LOWER MICHIGAN

CITY           SKY/WX    TMP DP  RH WIND       PRES   REMARKS
BATTLE CREEK   CLOUDY    35  32  88 SW13      29.51R WCI  26
BENTON HARBOR  CLOUDY    37  35  92 W16G25    29.56R WCI  28
BIG RAPIDS     LGT SNOW  35  35 100 W9        29.43R WCI  27
COLDWATER      CLOUDY    35  34  97 SW12      29.54R WCI  27
FREMONT        RAIN      35  34  97 W9        29.48R WCI  28
HOLLAND        CLOUDY    40  34  79 W13G21    29.52R WCI  32
GRAND RAPIDS   CLOUDY    37  34  89 W17       29.49R WCI  27
IONIA          CLOUDY    34  34 100 W13G18    29.46R WCI  25
KALAMAZOO      LGT RAIN  37  34  89 W10       29.53R WCI  30
LUDINGTON      LGT SNOW  36  32  87 NW7       29.49R WCI  30
MARSHALL       MIX PCPN  33  32  96 SW12      29.51R WCI  24
MOUNT PLEASANT FLURRIES  34  33  97 SW6G16    29.41R WCI  29
MUSKEGON       LGT RAIN  37  34  89 NW14G24   29.51R WCI  28
SOUTH HAVEN    CLOUDY    39  35  85 W14G20    29.54R WCI  31
$$
MIZ016>042-250600-
NORTHERN LOWER MICHIGAN

CITY           SKY/WX    TMP DP  RH WIND       PRES   REMARKS
ALPENA         LGT SNOW  33  32  96 W8G22     29.24R FOG     WCI  26
BEAVER ISLAND  CLOUDY    33  32  95 W9        29.36S WCI  26
BELLAIRE       CLOUDY    35  33  91 W5        29.38R WCI  31
CADILLAC       LGT SNOW  33  32  98 W8G21     29.38R WCI  25
CHARLEVOIX     CLOUDY    34  33  96 W16G23    29.39R WCI  24
FRANKFORT      CLOUDY    34  32  92 NW10G16   29.43S WCI  26
GAYLORD        LGT SNOW  32  31  96 W12G20    29.30R FOG     WCI  23
GRAYLING       LGT SNOW  33  33 100 W8        29.34R WCI  26
HARBOR SPRINGS CLOUDY    34  32  93 W10       29.32R WCI  26
HOUGHTON LAKE  LGT SNOW  33  31  92 W10       29.35R FOG     WCI  25
MANISTEE       CLOUDY    36  30  80 NW14      29.45S WCI  27
OSCODA         LGT SNOW  33  33  99 W14       29.27R WCI  23
PELLSTON       CLOUDY    34  32  92 W15       29.31S WCI  24
ROGERS CITY    LGT SNOW  33  33 100 W12G18    29.25R WCI  25
TRAVERSE CITY  CLOUDY    35  33  92 W15       29.39R WCI  25
$$
MIZ007>008-015-250600-
EASTERN UPPER MICHIGAN

CITY           SKY/WX    TMP DP  RH WIND       PRES   REMARKS
KINROSS        CLOUDY    36  36 100 NW15      29.25F WCI  26
MACKINAC ISLAN CLOUDY    34  34 100 W13G20    29.28R WCI  25
NEWBERRY       CLOUDY    32  32 100 W8        29.32S FOG     WCI  25
S. S. MARIE    CLOUDY    35  33  92 NW14G20   29.23F WCI  26
MUNISING         N/A     36  29  75 NW16G24   29.38S WCI  26
$$
MIZ004>006-011>014-085-250600-
CENTRAL UPPER MICHIGAN

CITY           SKY/WX    TMP DP  RH WIND       PRES   REMARKS
MANISTIQUE     LGT SNOW  32  32 100 NW10G18   29.36S WCI  24
ESCANABA       CLOUDY    32  28  86 W7        29.41S WCI  26
MENOMINEE      CLOUDY    34  28  80 W7        29.46R WCI  28
SAWYER-GWINN   CLOUDY    30  28  91 NW5       29.40R WCI  25
$$
MIZ001>003-009>011-084-250600-
WESTERN UPPER MICHIGAN

CITY           SKY/WX    TMP DP  RH WIND       PRES   REMARKS
IRON MOUNTAIN  CLOUDY    32  27  81 NW10      29.43R WCI  24
HOUGHTON       LGT SNOW  31  29  92 NW12      29.42S FOG     WCI  22
COPPER HARBOR    N/A     34  28  79 N17       29.42R WCI  23
IRONWOOD       CLOUDY    30  30 100 W12       29.47S WCI  21
$$

ABBREVIATIONS USED IN REMARKS
   TC - TEMPERATURE IN CELSIUS
  WCI - WIND CHILL INDEX
   HX - HEAT INDEX
  VSB - VISIBILITY




USA.gov is the U.S. government's official web portal to all federal, state and local government web resources and services.